User: anonymous   Login
Location: Unspecified
(0.0000°N, 0.0000°E)
Time: 15:29:19
(UTC+00:00)
Language:

OBJECT PK - Orbit

View from above orbital plane
View from above orbital plane
View from above satellite
View from above satellite

Ground track
Ground track

The orbit data is extracted from the following two-line orbital elements,

1 43598U 98067PK  20237.30871042 +.08160231 +12416-4 +62858-3 0  9999
2 43598 051.6101 275.6733 0002578 315.8688 044.2132 16.39524565116065
Epoch (UTC): 24 August 2020 07:24:32
Eccentricity: 0.0002578
inclination: 51.6101°
perigee height: 165 km
apogee height: 169 km
right ascension of ascending node: 275.6733°
argument of perigee: 315.8688°
revolutions per day: 16.39524565
mean anomaly at epoch: 44.2132°
orbit number at epoch: 11606

The dashed part of the orbit path shows where the satellite is in the earth's shadow,  

DLR